C/2023 E1 ( ATLAS )

Japanese version
Home page
Updated on July 27, 2024

---------------------------------------------------------------------

* Profile

Discovery Date March 1, 2023
Magnitude 18.8 mag
Discoverer Asteroid Terrestrial-Impact Last Alert System (ATLAS) search program

* Pictures

* Orbital Elements

Epoch 2023 Sept. 13.0 TT = JDT 2460200.5
T 2023 July 1.10941 TT                                  Rudenko
q   1.0266368            (2000.0)            P               Q
n   0.01158469     Peri.  105.89823     +0.06333682     +0.98427290
a  19.3440110      Node   164.57384     -0.97143018     +0.02293380
e   0.9469274      Incl.   38.31404     +0.22871784     -0.17515965
P  85.1
>From 3051 observations 2022 Dec. 25-2023 Nov. 15, mean residual 0".6.

* Finding Charts

* Magnitudes Graph

        m1 = 10.0 + 5 log d + 21.0 log r          [ ,0]  (             - 2023 July  1)
        m1 =  9.7 + 5 log d + 15.0 log r(t - 20)  [0, ]  (2023 July  1 -             )

---------------------------------------------------------------------

The orbital elements are published on M.P.E.C. 2023-X256.
The charts are made with StellaNavigator Ver.11 (AstroArts).
The magnitudes graphs are made with Comet for Windows.

---------------------------------------------------------------------

Copyright(C) Seiichi Yoshida (comet@aerith.net). All rights reserved.